Date String (YYYY-MM-DD hh:mm:ss) UTC,Instrument flags,Ambient pressure (hPa),Sample flow (lpm),Bypass flow (lpm),Sample temperature (°C),Ambient temperature (°C),ASC tube jacket temperature (°C),LED temperature (°C),Box temperature (°C),Sample RH (%),Span deviation,Mass concentration (μg/m³),Mass concentration (μg/m³),Mass concentration (μg/m³)
DateTimeUTC,F1_M11,P_M11,Q1_M11,Q2_M11,T1_M11,T2_M11,T3_M11,T4_M11,T5_M11,U1_M11,ZSPAN_M11,X2_M11,X0_M11,X1_M11
2021-08-31 15:00:00,,0824.0,4.99,0.00,29.8,28.1,00.0,38.9,31.5,22.9,0002.7,0019.05,0026.50,0018.13
2021-08-31 15:01:00,,0824.0,5.00,0.00,29.8,28.3,00.0,38.9,31.5,23.3,0002.7,0019.11,0027.51,0018.17
2021-08-31 15:02:00,,0824.0,5.00,0.00,29.8,28.5,00.0,38.9,31.6,20.2,0002.7,0019.15,0027.63,0018.17
2021-08-31 15:03:00,,0824.0,5.00,0.00,29.8,28.7,00.0,38.9,31.7,17.4,0002.5,0019.09,0027.39,0018.11
2021-08-31 15:04:00,,0824.0,4.99,0.00,29.9,28.8,00.0,38.9,31.7,16.6,0002.6,0019.08,0027.73,0018.03
2021-08-31 15:05:00,,0824.0,5.00,0.00,29.9,28.9,00.0,38.9,31.8,17.5,0002.7,0019.06,0027.98,0017.98
2021-08-31 15:06:00,,0824.0,5.00,0.00,30.0,29.0,00.0,38.9,31.8,14.4,0002.8,0018.97,0027.54,0017.89
2021-08-31 15:07:00,,0823.9,4.99,0.00,30.0,28.9,00.0,39.0,31.8,14.1,0002.9,0018.85,0027.20,0017.75
2021-08-31 15:08:00,,0823.9,5.02,0.00,29.9,27.3,00.0,38.9,31.4,14.0,0002.9,0018.65,0027.12,0017.58
2021-08-31 15:09:00,,0824.0,4.99,0.00,29.8,26.5,00.0,38.9,31.1,13.7,0003.0,0018.47,0027.31,0017.44
2021-08-31 15:10:00,,0824.0,5.00,0.00,29.7,26.9,00.0,38.9,31.2,15.1,0002.8,0018.36,0027.80,0017.33
2021-08-31 15:11:00,,0823.9,5.00,0.00,29.7,27.3,00.0,38.9,31.3,14.5,0002.7,0018.22,0027.21,0017.17
2021-08-31 15:12:00,,0824.0,5.01,0.00,29.7,27.6,00.0,38.9,31.3,15.3,0002.7,0018.03,0025.84,0017.00
2021-08-31 15:13:00,,0824.0,4.98,0.00,29.7,28.0,00.0,38.8,31.4,14.0,0002.6,0017.80,0025.13,0016.82
2021-08-31 15:14:00,,0824.0,5.02,0.00,29.7,28.2,00.0,38.8,31.5,14.2,0002.6,0017.73,0024.94,0016.76
2021-08-31 15:15:00,,0824.0,4.99,0.00,29.8,28.5,00.0,38.8,31.6,13.4,0002.6,0017.68,0024.59,0016.74
2021-08-31 15:16:00,,0824.0,5.00,0.00,29.8,28.7,00.0,38.9,31.7,13.0,0002.5,0017.55,0023.91,0016.66
2021-08-31 15:17:00,,0823.9,4.99,0.00,29.9,28.8,00.0,38.9,31.7,12.8,0002.5,0017.47,0024.30,0016.62
2021-08-31 15:18:00,,0824.0,5.01,0.00,29.9,28.9,00.0,38.9,31.8,13.6,0002.5,0017.45,0025.21,0016.61
2021-08-31 15:19:00,,0823.9,4.98,0.00,29.9,28.5,00.0,38.9,31.7,13.7,0002.6,0017.54,0026.74,0016.64
2021-08-31 15:20:00,,0823.9,5.01,0.00,29.8,26.9,00.0,38.9,31.3,13.2,0002.6,0017.59,0027.90,0016.64
2021-08-31 15:21:00,,0824.0,4.99,0.00,29.7,26.5,00.0,38.9,31.1,14.5,0002.6,0017.54,0027.49,0016.61
2021-08-31 15:22:00,,0824.0,5.00,0.00,29.7,26.9,00.0,38.9,31.2,14.6,0002.7,0017.53,0027.23,0016.62
2021-08-31 15:23:00,,0824.0,5.00,0.00,29.7,27.3,00.0,38.8,31.3,15.4,0002.6,0017.51,0027.83,0016.62
2021-08-31 15:24:00,,0824.0,5.00,0.00,29.7,27.7,00.0,38.8,31.3,16.5,0002.6,0017.61,0029.73,0016.69
2021-08-31 15:25:00,,0824.0,4.99,0.00,29.7,28.0,00.0,38.8,31.4,16.9,0002.6,0017.65,0031.19,0016.72
2021-08-31 15:26:00,,0824.0,5.01,0.00,29.7,28.3,00.0,38.8,31.5,16.7,0002.5,0017.67,0032.26,0016.76
2021-08-31 15:27:00,,0824.0,4.99,0.00,29.8,28.5,00.0,38.8,31.6,17.9,0002.5,0017.77,0032.62,0016.82
2021-08-31 15:28:00,,0824.0,4.99,0.00,29.8,28.7,00.0,38.8,31.6,16.7,0002.4,0017.87,0032.88,0016.90
2021-08-31 15:29:00,,0824.0,5.00,0.00,29.8,28.8,00.0,38.8,31.7,15.3,0002.4,0017.98,0032.97,0016.98
2021-08-31 15:30:00,,0824.0,5.00,0.00,29.9,28.7,00.0,38.8,31.7,16.1,0002.3,0017.96,0031.39,0017.00
2021-08-31 15:31:00,,0824.0,4.99,0.00,29.8,27.1,00.0,38.8,31.3,16.5,0002.4,0018.02,0031.32,0017.05
2021-08-31 15:32:00,,0824.0,5.00,0.00,29.7,26.5,00.0,38.8,31.1,16.6,0002.4,0018.12,0030.59,0017.12
2021-08-31 15:33:00,,0824.0,5.00,0.00,29.6,26.9,00.0,38.8,31.2,16.6,0002.5,0018.20,0031.01,0017.16
2021-08-31 15:34:00,,0824.0,5.00,0.00,29.6,27.3,00.0,38.8,31.2,15.9,0002.8,0018.30,0031.75,0017.21
2021-08-31 15:35:00,,0824.0,5.00,0.00,29.6,27.6,00.0,38.8,31.3,16.4,0003.1,0018.35,0032.93,0017.20
2021-08-31 15:36:00,,0824.0,5.00,0.00,29.6,28.0,00.0,38.7,31.4,16.7,0003.3,0018.37,0032.12,0017.20
2021-08-31 15:37:00,,0824.0,5.00,0.00,29.7,28.3,00.0,38.7,31.5,17.0,0003.5,0018.35,0030.88,0017.19
2021-08-31 15:38:00,,0824.0,5.00,0.00,29.7,28.5,00.0,38.8,31.5,17.4,0003.6,0018.35,0030.93,0017.20
2021-08-31 15:39:00,,0824.1,4.99,0.00,29.8,28.7,00.0,38.8,31.6,16.6,0003.6,0018.33,0030.78,0017.21
2021-08-31 15:40:00,,0824.0,4.99,0.00,29.8,28.8,00.0,38.8,31.7,16.5,0003.7,0018.31,0030.72,0017.18
2021-08-31 15:41:00,,0824.1,5.01,0.00,29.8,28.2,00.0,38.8,31.5,15.1,0003.5,0018.31,0030.73,0017.18
2021-08-31 15:42:00,,0824.1,5.00,0.00,29.7,26.5,00.0,38.8,31.0,15.9,0003.6,0018.28,0029.33,0017.20
2021-08-31 15:43:00,,0824.1,5.01,0.00,29.6,26.5,00.0,38.8,31.0,14.6,0003.6,0018.18,0028.77,0017.19
2021-08-31 15:44:00,,0824.1,5.00,0.00,29.6,26.9,00.0,38.7,31.1,14.8,0003.5,0018.15,0028.52,0017.19
2021-08-31 15:45:00,,0824.1,5.00,0.00,29.6,27.3,00.0,38.7,31.2,15.3,0003.4,0018.16,0027.91,0017.22
2021-08-31 15:46:00,,0824.1,4.99,0.00,29.6,27.7,00.0,38.7,31.3,15.7,0003.1,0018.15,0026.21,0017.26
2021-08-31 15:47:00,,0824.1,5.00,0.00,29.6,28.0,00.0,38.7,31.4,17.1,0003.0,0018.09,0024.68,0017.28
2021-08-31 15:48:00,,0824.1,5.01,0.00,29.7,28.3,00.0,38.7,31.5,19.1,0002.6,0018.14,0026.08,0017.29
2021-08-31 15:49:00,,0824.1,5.00,0.00,29.7,28.5,00.0,38.7,31.5,18.5,0002.5,0018.26,0026.52,0017.35
2021-08-31 15:50:00,,0824.1,4.99,0.00,29.7,28.7,00.0,38.7,31.6,18.7,0002.5,0018.39,0027.25,0017.39
2021-08-31 15:51:00,,0824.1,5.02,0.00,29.8,28.3,00.0,38.7,31.5,19.0,0002.4,0018.58,0028.27,0017.47
2021-08-31 15:52:00,,0824.1,4.99,0.00,29.7,26.7,00.0,38.7,31.1,19.1,0002.5,0018.77,0029.10,0017.57
2021-08-31 15:53:00,,0824.1,5.00,0.00,29.6,26.4,00.0,38.7,31.0,18.9,0002.2,0018.92,0029.58,0017.62
2021-08-31 15:54:00,,0824.1,5.01,0.00,29.5,26.9,00.0,38.7,31.1,18.6,0001.8,0019.18,0030.76,0017.72
2021-08-31 15:55:00,,0824.1,5.00,0.00,29.5,27.3,00.0,38.7,31.1,18.3,0001.7,0019.35,0031.96,0017.81
2021-08-31 15:56:00,,0824.1,5.00,0.00,29.5,27.6,00.0,38.6,31.2,18.9,0001.8,0019.47,0033.13,0017.90
2021-08-31 15:57:00,,0824.1,5.00,0.00,29.6,28.0,00.0,38.6,31.3,19.3,0001.9,0019.68,0035.68,0017.99
2021-08-31 15:58:00,,0824.1,4.99,0.00,29.6,28.2,00.0,38.6,31.4,18.2,0001.8,0019.96,0037.31,0018.12
2021-08-31 15:59:00,,0824.1,5.01,0.00,29.6,28.5,00.0,38.7,31.5,16.8,0002.2,0020.12,0036.38,0018.23
